SXM-7

Last updated on Sat Aug 22 2026 00:03:00 GMT+0000 (Coordinated Universal Time)

1 47240U 20096A 26233.10894367 -.00000207 00000+0 00000+0 0 9996 2 47240 0.0181 111.4683 0004101 354.2164 177.8184 1.00271222 8094
UTC large
Height (km)
Speed (km/s)
/
Latitude / Longitude
Inclination (degrees)
Orbital Period (minutes)
Azimuth
Elevation
Range (km)
Doppler Factor

Next 0 passes for location: London (51.5072 / 0.1276)

No passes found over London.
SXM-7